Aérodrome :
LOGIN :

S'inscrire | Disclaimer

   EN    FR    IT 

 










Légende :    VFR   VFR Marginal   IFR   IFR Intensif   IFR Très Intensif
Visi : 
Plafond : 
>= 8 km
>= 3000ft
5 à 8 km
1000 à 3000 ft
1500m à 5 km
500 à 1000 ft
800 à 1500m
200 à 500 ft
< 800m
< 200 ft
Symboles :   Orages  Brouillard  Fortes neiges  Fortes précipitations  Vent > 20 kt
SIGMETs :   Divers  Orages  Givrage  Turbulence  Onde Orograph.  Cendres Volcan.







- Altitude de l'aérodrome : 461 ft
- Code IATA : WIE


ETOU - Wiesbaden Army

DERNIER METAR :
  • 181056Z AUTO 10004KT 9999 FEW044 16/05 A3030 RMK AO2 SLP262 T01630053 $

METARs EXPIRÉS :
  • 180956Z AUTO 12005KT 9999 FEW039 16/06 A3031 RMK AO2 SLP266 T01560060 $
  • 180856Z AUTO 00000KT 9999 CLR 14/06 A3032 RMK AO2 SLP269 T01360055 52012
  • 180756Z AUTO 02003KT 9999 CLR 13/06 A3031 RMK AO2 SLP266 T01270056

TAF TAF ETOU
Valide du 18 à 11h jusqu'au 19 à 17h UTC


181111Z 1811/1917 VRB06KT 9999 FEW040 QNH3024INS
BECMG 1903/1904 VRB06KT 9999 SCT030 BKN040 QNH3035INS
BECMG 1908/1909 VRB06KT 9999 SKC QNH3037INS TX21/1815Z TN04/1905Z
Pas de NOTAMs connus pour ce terrain.



MET'MAP, la Météo Aéronautique d'un coup d'oeil ! - Copyright ORBIFLY Décembre 2007 - Disclaimer

ORBIFLY MET'MAP TEAM :

Programmation & Développement : Alexandra Zaïnal
Conception & Développement : Baudouin d'Aumeries
Co-Programmation & Développement : Marc-Olivier Méhu
Soutien technique & logistique : Manuel Goepfert

Contact : metmap@orbifly.com




SOURCES & CREDITS :

   NOAA